Tracking 28766 objects as of 14-Apr-2024
HD Live streaming from Space Station
objects crossing your sky now

STARLINK-2341

Track STARLINK-2341 now!
10-day predictions
STARLINK-2341 is classified as:


NORAD ID: 47794
Int'l Code: 2021-018H
Perigee: 365.7 km
Apogee: 368.2 km
Inclination: 53.1 °
Period: 91.7 minutes
Semi major axis: 6737 km
RCS: Unknown
Launch date: March 11, 2021
Source: United States (US)
Launch site: AIR FORCE EASTERN TEST RANGE (AFETR)
Your satellite tracking list
Your tracking list is empty




NASA's NSSDC Master Catalog

Two Line Element Set (TLE):
1 47794U 21018H   24104.36480461 -.00022942  00000-0 -18523-3 0  9999
2 47794  53.0543  99.8175 0001894  73.8990 286.2234 15.69677207172265
Source of the keplerian elements: AFSPC